Location: Newark
(49.8348°N, 24.0280°E)
Time: 18:40:49
(UTC+00:00)

Transit 2A - Pass Details

Date: 22 January 2020
Orbit: 599 x 959 km, 66.7° (Epoch: 25 February)

Event Time Altitude Azimuth Distance (km) Brightness Sun altitude
Rises 03:06:33 0° 324° (NW) 2,932 - -29.2°
Reaches altitude 10° 03:08:47 10° 328° (NNW) 2,056 - -28.9°
Maximum altitude 03:13:23 65° 51° (NE) 759 - -28.1°
Exits shadow 03:13:39 63° 70° (ENE) 769 6.1 -28.1°
Drops below altitude 10° 03:18:26 10° 133° (SE) 2,245 9.0 -27.3°
Sets 03:20:57 0° 136° (SE) 3,227 9.8 -26.9°
